Location: Newark
(46.7000°N, 60.6000°W)
Time: 08:17:39
(UTC+00:00)

Vanguard 3 - Pass Details

Date: 03 November 2020
Orbit: 508 x 3262 km, 33.3° (Epoch: 29 November)

Event Time Altitude Azimuth Distance (km) Brightness Sun altitude
Rises 12:26:16 0° 272° (W) 6,756 11.4 13.5°
Reaches altitude 10° 12:30:50 10° 266° (W) 5,954 11.2 14.1°
Maximum altitude 12:48:14 43° 204° (SSW) 4,054 11.1 16.3°
Drops below altitude 10° 13:04:08 10° 141° (SE) 5,445 14.0 18.1°
Sets 13:08:06 0° 135° (SE) 6,154 13.3 18.6°
